Skip Page Navigation
NASA JPL Caltech
NASA Logo - Jet Propulsion Laboratory + View the NASA Portal
+ Center for Near-Earth Object Studies
JPL Home Earth Solar System Stars & Galaxies Technology
JPL Solar System Dynamics
BODIES ORBITS EPHEMERIDES TOOLS PHYSICAL DATA DISCOVERY FAQ SITE MAP
IMPORTANT: The SSD Announcement email list is now available. Major changes are coming in the near future, including possible hostname and/or URL changes. To be notified of such changes, subscribe to this email list.

Please visit this page for more details.


JPL Small-Body Database Browser
Search: [ help ]  
20919 (6606 P-L)
Classification: Main-belt Asteroid          SPK-ID: 2020919
Ephemeris | Orbit Diagram | Orbital Elements | Mission Design | Physical Parameters | Discovery Circumstances | Close-Approach Data ]

[ show orbit diagram ]
Orbital Elements at Epoch 2459000.5 (2020-May-31.0) TDB
Reference: JPL 22 (heliocentric ecliptic J2000)
 Element Value Uncertainty (1-sigma)   Units 
e .04176313770115554 4.71e-08  
a 2.329285251437836 8.6047e-09 au
q 2.232006990736767 1.1115e-07 au
i 6.641909192704265 6.357e-06 deg
node 28.84668780295067 3.5121e-05 deg
peri 107.3876002420699 8.0885e-05 deg
M 155.500368019048 7.1728e-05 deg
tp 2458439.631095663163
(2018-Nov-17.13109566)
0.00025871 TDB
period 1298.471560765233
3.56
7.1951e-06
1.97e-08
d
yr
n .2772490448599735 1.5363e-09 deg/d
Q 2.426563512138906 8.9641e-09 au
  Orbit Determination Parameters
   # obs. used (total)      1301  
   data-arc span      21413 days (58.63 yr)  
   first obs. used      1960-09-24  
   last obs. used      2019-05-11  
   planetary ephem.      DE431  
   SB-pert. ephem.      SB431-N16  
   condition code      0  
   norm. resid. RMS      .50263  
   source      ORB  
   producer      Otto Matic  
   solution date      2019-May-30 02:56:39  

Additional Information
 Earth MOID = 1.25457 au 
 Jupiter MOID = 2.56502 au 
 T_jup = 3.562 
[ show covariance matrix ]

Ephemeris | Orbit Diagram | Orbital Elements | Mission Design | Physical Parameters | Discovery Circumstances | Close-Approach Data ]

Physical Parameter Table
Parameter Symbol Value Units Sigma Reference Notes
absolute magnitude H 14.8   n/a MPO435894  
diameter diameter 2.153 km 0.386 urn:nasa:pds:neowise_diameters_albedos::2.0[mainbelt] (http://adsabs.harvard.edu/abs/2011ApJ...741...68M)  
geometric albedo albedo 0.264   0.082 urn:nasa:pds:neowise_diameters_albedos::2.0[mainbelt] (http://adsabs.harvard.edu/abs/2011ApJ...741...68M)  

20919 (6606 P-L)          Discovered 1960-Sep-24 by van Houten, C. J., van Houten-Groeneveld, I., Gehrels, T. at Palomar
Reference: 20010109/Numbers.arcLast Updated: 2004-04-19

[ show close-approach data ]
Alternate Designations
 6606 P-L = 1998 HH94 
Ephemeris | Orbit Diagram | Orbital Elements | Mission Design | Physical Parameters | Discovery Circumstances | Close-Approach Data ]
ABOUT SSD CREDITS/AWARDS PRIVACY/COPYRIGHT GLOSSARY LINKS
FirstGov 2020-Feb-29 12:18 UT
(server date/time)  
NASA Home Page
Site Manager:   Ryan S. Park
Webmaster  Alan B. Chamberlin